The Cajun Classic - Race 1

Station: Ruston La - A Race

Distance: 175 Miles    

Release: 12-Oct-2017 07:30

Weather Release: clear and sunny    Arrival: clear

Wind at Release: calm     Wind at Arrival:

Temp at Release: 58°    Temp at Arrival: 82°

Lofts: 42

Birds: 121

Clocked: 110

Good Luck to Everyone!
Drops Pos Breeder Pigeon Name Color Sex Ent Arrival Speed To Win Eligible
200.00 1 Bayou Lofts - LA 0724-AU17-BRFT BC H 1 10:46:28.50 1567.629 00:00:00 Yes
100.00 2 Texas Trio 2 - TX 4035-AU17-TEXA BBWF C 1 10:46:30.80 1567.324 00:00:02 Yes
3 Black Magic Loft - TX 0402-AU17-BLAC BB H 1 10:46:35.70 1566.673 00:00:07 Yes
4 Black Gold Loft - TX 22156-AU17-AA BB C 1 10:46:47.40 1565.120 00:00:19 Yes
5 Red Ass Ranch - TX 0137-AU17-RAR BB C 1 10:46:47.80 1565.067 00:00:19 Yes
6 Texas Trio 2 - TX 1018-AU17-VPR BB H 2 10:46:48.10 1565.027 00:00:20 Yes
7 Ed Minvielle - LA 17023-AU17-A BCSP C 1 10:46:48.40 1564.988 00:00:20 Yes
8 Pigeon Palace - LA 0332-AU17-LAF BB H 1 10:46:48.80 1564.935 00:00:20 Yes
9 John Fukumoto - HI 0377-AU17-HAWN BB C 1 10:46:51.40 1564.590 00:00:23 Yes
10 Clear Springs Loft - FL 17017-AU17-WARD BB H 1 10:46:52.90 1564.391 00:00:24 Yes
11 Ganus Family Loft - IN 0732-AU17-GFL BB C 1 10:46:55.50 1564.047 00:00:27 Yes
12 Pigeon Palace - LA 0364-AU17-LAF BB H 2 10:46:56.50 1563.915 00:00:28 Yes
13 Mcconnell Loft - FL 1844-AU17-GHC BB H 1 10:46:57.10 1563.835 00:00:29 Yes
14 Texas Trio 2 - TX 1017-AU17-VPR BBWF H 3 10:46:58.10 1563.703 00:00:30 Yes
15 Nanez Family Lofts - WI 4175-AU17-NANE BB H 1 10:46:59.40 1563.531 00:00:31 Yes
16 Gilbert Wiltz - TX 10938-AU17-AA BBWF C 1 10:46:59.90 1563.465 00:00:31 Yes
17 Carroll Hoover - PA 1071-IF17-RLPC BB H 1 10:47:03.00 1563.055 00:00:34 Yes
18 Ed Minvielle - LA 17032-AU17-A BB H 2 10:47:05.90 1562.672 00:00:37 Yes
18 Southern Belle - GA 0012-AU17-NEA DC H 1 10:47:05.90 1562.672 00:00:37 Yes
20 Nanez Family Lofts - WI 4190-AU17-NANE BB C 2 10:47:10.70 1562.038 00:00:42 Yes
21 Mcconnell Loft - FL 1842-AU17-GHC BC H 2 10:47:11.10 1561.985 00:00:43 Yes
22 Hollywood Lou Loft - FL 0033-AU17-HLOU BB H 1 10:47:18.40 1561.022 00:00:50 Yes
23 Ed Minvielle - LA 17041-AU17-A BBWF H 3 10:47:19.70 1560.850 00:00:51 Yes
24 John Fukumoto - HI 0355-AU17-HAWN BB C 2 10:47:23.20 1560.389 00:00:55 Yes
25 Black Gold Loft - TX 22119-AU17-AA BB C 2 10:47:24.20 1560.257 00:00:56 Yes
26 A P C Loft - TX 17141-AU17-APC BBWF H 1 10:47:30.60 1559.415 00:01:02 Yes
27 Bionic Loft - LA 0664-AU17-CAJU BCWF H 1 10:47:31.70 1559.270 00:01:03 Yes
28 Bottoms Up Loft - TX 8657-AU17-AA BBP C 1 10:47:32.10 1559.217 00:01:04 Yes
29 Red Ass Ranch - TX 0135-AU17-RAR BB C 2 10:47:39.70 1558.218 00:01:11 Yes
30 Texas Trio 2 - TX 4135-AU17-TEXA BB C 4 10:47:40.10 1558.166 00:01:12 Yes
31 Black Gold Loft - TX 0820-AU17-BLGO BC C 3 10:47:43.40 1557.732 00:01:15 Yes
32 Bottoms Up Loft - TX 8667-AU17-AA BB C 2 10:47:44.90 1557.535 00:01:16 Yes
33 El Dorado Loft - TX 0153-AU17-TEXA BB C 1 10:47:45.70 1557.430 00:01:17 Yes
34 J & K Of Tx - TX 0421-AU17-PB RC C 1 10:47:46.20 1557.365 00:01:18 Yes
35 Carroll Hoover - PA 1070-IF17-RLPC BC C 2 10:47:46.70 1557.299 00:01:18 Yes
36 Vick Corso - LA 1261-AU17-CORS DC H 1 10:47:47.20 1557.233 00:01:19 Yes
37 J B Loft - LA 0924-AU17-BRFT Pied Piper Ii BBWF C 1 10:47:48.10 1557.115 00:01:20 Yes
38 Zero's Loft - NM 3316-AU17-AA BCPD H 1 10:47:49.50 1556.932 00:01:21 Yes
39 Cajun Express Loft - LA 0811-AU17-CEL BB C 1 10:47:51.80 1556.630 00:01:23 Yes
40 Vick Corso - LA 1252-AU17-CORS BC H 2 10:47:53.20 1556.446 00:01:25 Yes
41 Pigeon Palace - LA 0320-AU17-LAF BBWF C 3 10:47:53.70 1556.381 00:01:25 Yes
42 Johnson/Mailhes - LA 0185-AU17-LAF BC H 1 10:47:54.00 1556.342 00:01:25 Yes
43 Poorshow Loft - LA 22408-AU17-AA SILV C 1 10:47:54.30 1556.302 00:01:26 Yes
44 Espo Loft - SC 0955-AU17-ESPO BC C 1 10:47:57.00 1555.948 00:01:29 Yes
45 A P C Loft - TX 17139-AU17-APC BB H 2 10:47:59.00 1555.687 00:01:30 Yes
46 Hollywood Lou Loft - FL 0045-AU17-HLOU BC C 2 10:47:59.70 1555.595 00:01:31 Yes
47 Cajun Express Loft - LA 0816-AU17-CEL BB H 2 10:48:07.90 1554.522 00:01:39 Yes
48 Ed Minvielle - LA 17021-AU17-A BBWF C 4 10:48:12.90 1553.868 00:01:44 Yes
49 Red Ass Ranch - TX 0134-AU17-RAR BBWF C 3 10:48:20.20 1552.915 00:01:52 Yes
50 R & R Loft - LA 0150-AU17-MILL BB C 1 10:48:26.50 1552.093 00:01:58 Yes
51 New Orleans Boys 2 - LA 0523-AU17-DELT BBPD C 1 10:48:45.20 1549.660 00:02:17 Yes
52 Pigeon Palace - LA 0369-AU17-LAF BB H 4 10:49:30.70 1543.769 00:03:02 Yes
53 John Fukumoto - HI 0388-AU17-HAWN BB C 3 10:51:18.80 1529.953 00:04:50 Yes
54 Lyons Loft - TX 1204-AU17-TXHC BB H 1 10:51:52.30 1525.722 00:05:24 Yes
55 Mcconnell Loft - FL 1802-AU17-GHC BBPD H 3 10:51:55.20 1525.357 00:05:27 Yes
56 H H H No 2 - TX 19854-AU17-FOYS BB H 1 10:51:57.70 1525.042 00:05:29 Yes
57 Oaktree - LA 0726-AU17-OAK BCP H 1 10:52:01.30 1524.589 00:05:33 Yes
58 Black Magic Loft - TX 0403-AU17-BLAC BB C 2 10:52:43.80 1519.262 00:06:15 Yes
59 Red Ass Ranch - TX 0133-AU17-RAR BBWF H 4 10:52:44.70 1519.150 00:06:16 Yes
59 Nanez Family Lofts - WI 4180-AU17-NANE DC C 3 10:52:44.70 1519.150 00:06:16 Yes
61 Aucoin & Rivero Loft - LA 1627-AU17-AUCO BC H 1 10:52:49.90 1518.501 00:06:21 Yes
62 Vick Corso - LA 1246-AU17-CORS BC H 3 10:52:53.20 1518.089 00:06:25 Yes
63 A P C Loft - TX 17149-AU17-APC BBWF H 3 10:52:54.90 1517.877 00:06:26 Yes
64 H H H No 2 - TX 19862-AU17-FOYS BB H 2 10:52:56.90 1517.628 00:06:28 Yes
65 Texas Trio 2 - TX 4084-AU17-TEXA BB H 5 10:53:01.00 1517.117 00:06:32 Yes
66 R & R Loft - LA 0143-AU17-MILL BB H 2 10:56:40.70 1490.238 00:10:12 Yes
67 Hollywood Lou Loft - FL 0037-AU17-HLOU BBWF C 3 10:57:44.90 1482.563 00:11:16 Yes
68 H H H No 2 - TX 19853-AU17-FOYS BB C 3 10:57:48.70 1482.111 00:11:20 Yes
69 Johnson/Mailhes - LA 0161-AU17-LAF BC H 2 10:58:08.10 1479.809 00:11:40 Yes
70 J B Loft - LA 0923-AU17-BRFT Chief BCWF C 2 10:58:39.90 1476.050 00:12:11 Yes
71 Black Gold Loft - TX 22155-AU17-AA BB C 4 11:00:29.10 1463.287 00:14:01 Yes
72 Farmers Loft Of La - LA 0726-AU17-FARM BCP H 1 11:01:01.80 1459.508 00:14:33 Yes
73 Nanez Family Lofts - WI 4295-AU17-NANE BB H 4 11:01:02.30 1459.450 00:14:34 Yes
74 Lyons Loft - TX 1202-AU17-TXHC BB C 2 11:01:12.50 1458.276 00:14:44 Yes
75 New Orleans Boys 2 - LA 0307-AU17-MET BB C 2 11:06:34.00 1422.195 00:20:05 Yes
76 Bucktown Loft - LA 1611-AU17-AUCO BB H 1 11:06:59.50 1419.409 00:20:31 Yes
77 New Orleans Boys 2 - LA 0510-AU17-DELT BB H 3 11:06:59.80 1419.377 00:20:31 Yes
78 Bucktown Loft - LA 1628-AU17-AUCO BB C 2 11:07:06.60 1418.636 00:20:38 Yes
79 Toca Ridge Loft - LA 7385-AU17-AA DC H 1 11:07:06.80 1418.614 00:20:38 Yes
80 Aucoin & Rivero Loft - LA 1625-AU17-AUCO BCWF C 2 11:09:13.20 1404.981 00:22:45 Yes
81 A P C Loft - TX 17159-AU17-APC BB H 4 11:09:18.70 1404.394 00:22:50 Yes
82 A P C Loft - TX 17154-AU17-APC BB C 5 11:13:18.80 1379.228 00:26:50 Yes
83 Johnson/Mailhes - LA 0150-AU17-LAF BC C 3 11:14:05.70 1374.417 00:27:37 Yes
84 B & S Loft 2 - LA 0783-AU17-LAF BCWF H 1 11:15:10.40 1367.835 00:28:42 Yes
85 Black Magic Loft - TX 0410-AU17-BLAC GRIZ C 3 11:15:11.00 1367.774 00:28:43 Yes
86 Lewis Loft - LA 7319-AU17-CENL Coup De Main BC H 1 11:15:20.00 1366.864 00:28:51 Yes
87 Nanez Family Lofts - WI 4169-AU17-NANE BB C 5 11:16:25.10 1360.314 00:29:57 Yes
88 Tom Cosgriff - NJ 0029-AU17-ARPU BC H 1 11:17:19.70 1354.869 00:30:51 Yes
89 Gilbert Wiltz - TX 10941-AU17-AA BCWF C 2 11:20:40.50 1335.212 00:34:12 Inj
90 Ganus Family Loft - IN 0362-AU17-GFL BB C 2 11:21:16.60 1331.738 00:34:48 Yes
91 Red Ass Ranch - TX 0132-AU17-RAR BBWF H 5 11:36:02.80 1251.795 00:49:34 Yes
92 Redtex - TX 0016-AU17-REDT SILV C 1 11:36:07.20 1251.422 00:49:39 Yes
93 Clear Springs Loft - FL 17034-AU17-WARD BB C 2 11:40:21.40 1230.245 00:53:53 Yes
94 Bottoms Up Loft - TX 8671-AU17-AA BC H 3 11:40:24.10 1230.024 00:53:56 Yes
95 Espo Loft - SC 0957-AU17-ESPO BC H 2 11:40:26.10 1229.860 00:53:58 Yes
96 Carroll Hoover - PA 1067-IF17-RLPC BB H 3 11:43:41.30 1214.088 00:57:13 Yes
97 Carroll Hoover - PA 1062-IF17-RLPC BB C 4 11:43:43.80 1213.889 00:57:15 Yes
98 New Orleans Boys 2 - LA 0314-AU17-MET BC H 4 12:36:55.60 1003.497 01:50:27 Yes
99 Pigeon Palace - LA 0350-AU17-LAF BB C 5 13:00:24.90 932.161 02:13:56 Yes
100 Bottoms Up Loft - TX 8658-AU17-AA BC C 4 13:07:58.00 911.332 02:21:30 Yes

There are 118 bird records

Note: These Race Results are unofficial and subject to change until verified by the Race Committee and declared final.